Regional Weather Roundup
Issued by NWS

Home | Current Version | Previous Version | Text Only | Print | Product List | Glossary Off
Versions: 1 2 3 4 5 6 7 8 9 10 11 12 13 14 15 16 17 18 19 20 21 22 23 24 25 26 27 28 29 30 31 32 33 34 35 36 37 38 39 40 41 42 43 44 45 46 47 48 49 50

000
ASUS43 KMKX 210210
RWRWI

WISCONSIN REGIONAL WEATHER ROUNDUP
NATIONAL WEATHER SERVICE MILWAUKEE/SULLIVAN WI
900 PM CDT FRI APR 20 2018

NOTE: "FAIR" INDICATES FEW OR NO CLOUDS BELOW 12,000 FEET WITH NO
SIGNIFICANT WEATHER AND/OR OBSTRUCTIONS TO VISIBILITY.

WIZ001-002-006>008-014>016-023>028-210300-
NORTHWEST WISCONSIN

CITY           SKY/WX    TMP DP  RH WIND       PRES   REMARKS
SUPERIOR ARPT  FAIR      48  21  35 SW6       30.39R
ASHLAND        FAIR      39  21  48 SW3       30.40S
HAYWARD        FAIR      39  23  52 CALM      30.41R
SIREN          FAIR      39  22  48 CALM      30.42S
CUMBERLAND     FAIR      37  19  48 CALM      30.42S
RICE LAKE      FAIR      39  22  51 CALM      30.44S
CHETEK         FAIR      39  20  47 CALM      30.43S
LADYSMITH      FAIR      41  20  43 CALM      30.44R
EAU CLAIRE     FAIR      41  19  41 CALM      30.42S
MENOMONIE      FAIR      46  19  33 W6        30.43S
NEW RICHMOND   FAIR      42  23  47 CALM      30.44R
OSCEOLA        FAIR      39  28  64 CALM      30.46R
$$

WIZ003>005-009-010-017-018-210300-
NORTH CENTRAL WISCONSIN

CITY           SKY/WX    TMP DP  RH WIND       PRES   REMARKS
MANITOWISH WTR FAIR      40  18  41 CALM      30.39S
ARBOR VITAE    FAIR      42  21  43 CALM      30.39S
WOODRUFF       FAIR      42  21  43 CALM      30.39S
RHINELANDER    FAIR      44  18  35 SW7       30.41R
EAGLE RIVER    FAIR      37  12  37 SW3       30.39R
LAND O LAKES   FAIR      39  20  46 NE3       30.41R
PHILLIPS       FAIR      40  22  48 CALM      30.41R
TOMAHAWK       FAIR      36  16  44 CALM      30.42R
MEDFORD        FAIR      37  19  47 CALM      30.42R
MERRILL          N/A     40  18  42 CALM      30.43R
$$

WIZ029-030-035-036-043>047-210300-
CENTRAL WISCONSIN

CITY           SKY/WX    TMP DP  RH WIND       PRES   REMARKS
WAUSAU         FAIR      41  16  36 CALM      30.41R
MOSINEE        PTCLDY    43  12  28 CALM      30.43R
MARSHFIELD     FAIR      43  17  35 CALM      30.41R
STEVENS POINT  FAIR      35  18  48 CALM      30.44R
WAUPACA        FAIR      42  21  43 CALM      30.44R
WAUTOMA        FAIR      35  26  69 CALM      30.44R
WISC RAPIDS    FAIR      40  15  36 CALM      30.44R
CAMP DOUGLAS   FAIR      34  25  69 CALM      30.42S HAZE
$$

WIZ011>013-019>022-031-037>040-048>050-210300-
NORTHEAST WISCONSIN

CITY           SKY/WX    TMP DP  RH WIND       PRES   REMARKS
ANTIGO         FAIR      38  19  47 CALM      30.42R
SHAWANO        FAIR      46  18  32 CALM      30.42R
OCONTO         FAIR      36  20  53 CALM      30.42R
STURGEON BAY   FAIR      43  25  49 S6        30.43S
GREEN BAY      FAIR      39  25  57 SW3       30.43R
MANITOWOC      FAIR      38  28  67 CALM      30.45R
APPLETON       PTCLDY    45  18  33 CALM      30.42R
CLINTONVILLE   FAIR      44  15  31 SW6       30.43R
OSHKOSH        FAIR      41  21  44 S6        30.44R
$$

WIZ032>034-041-042-053>061-210300-
SOUTHWEST WISCONSIN

CITY           SKY/WX    TMP DP  RH WIND       PRES   REMARKS
LA CROSSE      FAIR      45  30  55 CALM      30.44R
SPARTA         FAIR      36  21  55 CALM      30.45R
VIROQUA        FAIR      44  26  50 NW3       30.43R
BOSCOBEL       FAIR      43  31  62 CALM      30.43R HAZE
PRAIRIE DU CHI FAIR      47  30  51 NW3       30.42R
PLATTEVILLE    FAIR      51  30  44 SE3       30.42R
$$

WIZ056-057-062-063-064-067-068-210300-
SOUTH CENTRAL WISCONSIN

CITY           SKY/WX    TMP DP  RH WIND       PRES   REMARKS
REEDSBURG      FAIR      43  17  36 CALM      30.43R
BARABOO/DELLS  FAIR      41  15  35 CALM      30.42S
LONE ROCK      FAIR      44  31  60 CALM      30.43R
MINERAL POINT  FAIR      52  18  25 CALM      30.42R
MADISON        FAIR      41  26  55 CALM      30.43R
MIDDLETON      FAIR      41  28  59 CALM      30.43S
WATERTOWN      FAIR      38  25  58 CALM      30.43S
MONROE         FAIR      52  21  30 SW6       30.42R
JANESVILLE     FAIR      46  32  57 E3        30.42R
$$

WIZ051-052-058>065-066-070>072-210300-
SOUTHEAST WISCONSIN

CITY           SKY/WX    TMP DP  RH WIND       PRES   REMARKS
MILWAUKEE      FAIR      44  19  36 CALM      30.45R
WAUKESHA       CLEAR     45  19  36 SE3       30.45R
MILWAUKEE/TIMM CLEAR     43  18  36 CALM      30.46R
RACINE         FAIR      42  15  33 CALM      30.47R
BURLINGTON     FAIR      42  24  47 CALM      30.45R
KENOSHA        FAIR      41  17  38 CALM      30.45R
FOND DU LAC    FAIR      37  20  50 CALM      30.44R
SHEBOYGAN      FAIR      40  30  67 SW6       30.44R
WEST BEND      FAIR      37  25  60 CALM      30.45R
JUNEAU         FAIR      42  18  36 CALM      30.45R
$$

LSZ147-162-210300-
LAKE SUPERIOR

STATION/POSITION TIME  TEMP    WIND        PRES    WAVE
                       AIR SEA DIR/SP/G            HT/PER
                 (UTC) (F)     (DEG/KT/KT) (MB)    (FT/S)
DEVILS ISLAND    0200   45     130/  4/  4 1029.8R
SAXON HARBOR     0130   37     180/  3/  3 1028.4S
$$

LMZ867-665-643>646-210300-
LAKE MICHIGAN

STATION/POSITION TIME  TEMP    WIND        PRES    WAVE
                       AIR SEA DIR/SP/G            HT/PER
                 (UTC) (F)     (DEG/KT/KT) (MB)    (FT/S)
NORTHPORT PIER   0140   39                 1030.1R
KEWAUNEE LAKESHO 0148   38      CALM  /  2 1029.7R
SHEBOYGAN LAKESH 0200   45     210/  4/  5 1031.3R
PORT WASHINGTON  0130   40      CALM  /  2 1031.8R
MILWAUKEE LAKESH 0150   40        CALM       N/A
KENOSHA   LAKESH 0200   43                 1031.2
$$

TC  - TEMPERATURE IN CELSIUS
VSB - VISIBILITY IN STATUTE MILES
WCI - WIND CHILL INDEX
HX  - HEAT INDEX




USA.gov is the U.S. government's official web portal to all federal, state and local government web resources and services.